Regional Weather Roundup
Issued by NWS New Orleans/Baton Rouge, LA

Home | Current Version | Previous Version | Graphics & Text | Print | Product List | Glossary On
Versions: 1 2 3 4 5 6 7 8 9 10 11 12 13 14 15 16 17 18 19 20 21 22 23 24 25 26 27 28 29 30 31 32 33 34 35 36 37 38 39 40 41 42 43 44 45 46 47 48 49 50
661
ASUS44 KLIX 241701
RWRLIX
NEW ORLEANS REGIONAL WEATHER ROUNDUP
NATIONAL WEATHER SERVICE NEW ORLEANS LA
1200 PM CDT FRI OCT 24 2014

NOTE: "FAIR" INDICATES FEW OR NO CLOUDS BELOW 12,000 FEET WITH NO
      SIGNIFICANT WEATHER AND/OR OBSTRUCTIONS TO VISIBILITY.
      SKY/WX - SKY CONDITION AND SIGNIFICANT WEATHER.
      TMP - AIR TEMPERATURE.     DP    - DEWPOINT TEMPERATURE.
      RH  - RELATIVE HUMIDITY.   PRES  - PRESSURE.
      HI  - HEAT INDEX.          WCI   - WIND CHILL INDEX.

*  THESE STATIONS ARE NOT NWS OR FAA STATIONS AND ARE NOT UNDER
   NWS QUALITY CONTROL.

LAZ038-040-048-061>063-065>067-069-241800-
SOUTHEAST LOUISIANA

CITY           SKY/WX    TMP DP  RH WIND       PRES   REMARKS
N.O. AUDUBON     N/A     76  51  41 MISG        N/A
N.O. INTL ARPT MOSUNNY   71  50  47 N9        30.11F
N.O. LAKEFRONT SUNNY     70  53  54 N6        30.11F
N.O. DOWNTOWN*   N/A     72  43  35 NW8       30.12S
SLIDELL        SUNNY     72  46  39 N5        30.09F
BATON ROUGE    SUNNY     71  47  42 VRB6      30.13F
BOOTHVILLE     SUNNY     73  53  49 VRB3      30.09F
BELLE CHASSE   MOSUNNY   74  47  38 N7        30.10F
BOGALUSA*        N/A     73  43  34 N7        30.12F
NEW ROADS*       N/A     68  50  52 NW5       30.14F
GONZALES*        N/A     70  51  50 N6        30.11F
HAMMOND*       NOT AVBL
HOUMA*         SUNNY     72  50  46 N6        30.10F
PORT FOURCHON* SUNNY     72  52  49 NE7       30.13F

$$

MSZ070-080>082-241800-
SOUTHERN MISSISSIPPI

CITY           SKY/WX    TMP DP  RH WIND       PRES   REMARKS
MCCOMB         SUNNY     69  41  36 N9        30.13F
GULFPORT       MOSUNNY   72  46  39 N7        30.09F
BILOXI         SUNNY     73  46  37 N6        30.09F
PASCAGOULA     SUNNY     73  45  36 VRB7      30.09S
STENNIS ARPT*  SUNNY     72  43  35 CALM      30.10F

$$

COASTAL OBSERVATIONS
LAKE AND NEARSHORE STATIONS

STATION/POSITION TIME  TEMP    WIND        PRES    WAVE
                       AIR SEA DIR/SP/G            HT/PER
                 (UTC) (F)     (DEG/KT/KT) (MB)    (FT/S)
PASCAGOULA       1600   71     360/  6/  9 1018.3
WAVELAND YACHT   1600   67      10/  3/  4 1018.6
GRAND ISLE       1600   70 72   20/  5/  6 1019.8
SOUTHWEST PASS   1600   75 80  360/  8/ 10 1019.3
NEW CANAL        1600   65 70   10/  6/  8 1020.2
SHELL BEACH      1600   66 66  360/  5/  6 1019.3

OFFSHORE STATIONS

STATION/POSITION TIME  TEMP    WIND        PRES    WAVE
                       AIR SEA DIR/SP/G            HT/PER
                 (UTC) (F)     (DEG/KT/KT) (MB)    (FT/S)
64 S DAUPHIN ISL 1650   71 79   20/  8/ 10 1018.8    3/ 6

$$




USA.gov is the U.S. government's official web portal to all federal, state and local government web resources and services.